FW1358 Weather Reports


Display with metric or nautical units.
time (UTC)temp
F
wind
direction
speed
MPH
gust
MPH
rain 1hr
in
rain 24hr
in
rain mn
in
humidity
%
barometer
mb
20260510193303 87 305 0.0 0.0 0.00 0.00 0.00 41 1016.3
20260510191304 88 305 0.0 0.0 0.00 0.00 0.00 36 1016.2
20260510190304 88 305 0.0 0.0 0.00 0.00 0.00 34 1016.4
20260510185305 88 305 0.0 0.0 0.00 0.00 0.00 36 1016.5
20260510184303 88 305 0.0 0.0 0.00 0.00 0.00 35 1016.7
20260510183804 88 305 0.0 0.0 0.00 0.00 0.00 39 1016.8
20260510182306 87 305 0.0 0.0 0.00 0.00 0.00 37 1016.8
20260510180304 86 305 0.0 0.0 0.00 0.00 0.00 41 1017.0
20260510173304 84 290 0.0 0.0 0.00 0.00 0.00 41 1017.1
20260510172803 84 290 0.0 0.0 0.00 0.00 0.00 39 1017.2
20260510172306 84 290 0.0 0.0 0.00 0.00 0.00 42 1017.2
20260510170803 84 290 0.0 0.0 0.00 0.00 0.00 44 1017.4
20260510165306 83 290 0.0 0.0 0.00 0.00 0.00 42 1017.2
20260510164804 83 290 0.0 0.0 0.00 0.00 0.00 46 1017.2
20260510163803 82 290 0.0 0.0 0.00 0.00 0.00 43 1017.2
20260510161803 81 290 0.0 0.0 0.00 0.00 0.00 49 1017.3
20260510160803 81 290 0.0 0.0 0.00 0.00 0.00 50 1017.3
20260510160303 81 290 0.0 0.0 0.00 0.00 0.00 52 1017.2
20260510154303 79 290 0.0 2.0 0.00 0.00 0.00 58 1017.2
20260510152803 78 146 0.0 0.0 0.00 0.00 0.00 64 1017.3
20260510152306 77 146 0.0 0.0 0.00 0.00 0.00 64 1017.3
20260510151303 76 146 0.0 0.0 0.00 0.00 0.00 70 1017.4
20260510145305 73 146 0.0 0.0 0.00 0.00 0.00 77 1017.4
20260510143303 71 146 0.0 0.0 0.00 0.00 0.00 82 1017.4
20260510140303 67 146 0.0 0.0 0.00 0.00 0.00 91 1017.3
20260510135306 65 146 0.0 0.0 0.00 0.00 0.00 95 1017.3
20260510133303 64 146 0.0 0.0 0.00 0.00 0.00 95 1017.2
20260510131803 62 146 0.0 0.0 0.00 0.00 0.00 94 1017.2
20260510131303 61 146 0.0 0.0 0.00 0.00 0.00 94 1017.2
20260510130303 60 146 0.0 0.0 0.00 0.00 0.00 94 1017.2
20260510125306 59 146 0.0 0.0 0.00 0.00 0.00 94 1017.1
20260510124804 58 146 0.0 0.0 0.00 0.00 0.00 94 1017.0
20260510124304 57 146 0.0 0.0 0.00 0.00 0.00 94 1016.9
20260510123803 57 146 0.0 0.0 0.00 0.00 0.00 93 1016.8
20260510123303 57 146 0.0 0.0 0.00 0.00 0.00 93 1016.8
20260510122803 57 146 0.0 0.0 0.00 0.00 0.00 93 1016.8
20260510122306 57 146 0.0 0.0 0.00 0.00 0.00 93 1016.8
20260510120803 56 146 0.0 0.0 0.00 0.00 0.00 93 1016.6
20260510114803 55 146 0.0 0.0 0.00 0.00 0.00 91 1016.4
20260510112803 56 146 0.0 0.0 0.00 0.00 0.00 92 1016.2
20260510110804 55 146 0.0 0.0 0.00 0.00 0.00 92 1015.7
20260510110303 55 146 0.0 0.0 0.00 0.00 0.00 92 1015.7
20260510105803 55 146 0.0 0.0 0.00 0.00 0.00 91 1015.7
20260510105306 55 146 0.0 0.0 0.00 0.00 0.00 90 1015.7
20260510104804 56 146 0.0 0.0 0.00 0.00 0.00 89 1015.7
20260510103303 57 146 0.0 0.0 0.00 0.00 0.00 92 1015.5
20260510101303 56 146 0.0 0.0 0.00 0.00 0.00 91 1015.4
20260510100803 56 146 0.0 0.0 0.00 0.00 0.00 92 1015.4
20260510095804 56 146 0.0 0.0 0.00 0.00 0.00 91 1015.3
20260510094803 56 146 0.0 0.0 0.00 0.00 0.00 91 1015.2
20260510094304 56 146 0.0 0.0 0.00 0.00 0.00 90 1015.2
20260510093803 56 146 0.0 0.0 0.00 0.00 0.00 90 1015.1
20260510093303 56 146 0.0 0.0 0.00 0.00 0.00 90 1015.1
20260510092804 56 146 0.0 0.0 0.00 0.00 0.00 90 1015.0
20260510091803 57 146 0.0 0.0 0.00 0.00 0.00 90 1015.0
20260510091303 57 146 0.0 0.0 0.00 0.00 0.00 90 1015.0
20260510090803 57 146 0.0 0.0 0.00 0.00 0.00 90 1014.9
20260510090303 57 146 0.0 0.0 0.00 0.00 0.00 90 1014.8
20260510085803 57 146 0.0 0.0 0.00 0.00 0.00 90 1014.7
20260510085306 57 146 0.0 0.0 0.00 0.00 0.00 90 1014.7
20260510084803 57 146 0.0 0.0 0.00 0.00 0.00 90 1014.8
20260510083303 57 146 0.0 0.0 0.00 0.00 0.00 90 1014.7
20260510082306 57 146 0.0 0.0 0.00 0.00 0.00 91 1014.5
20260510081803 57 146 0.0 0.0 0.00 0.00 0.00 90 1014.4
20260510080303 57 146 0.0 0.0 0.00 0.00 0.00 90 1014.2
20260510074303 57 146 0.0 0.0 0.00 0.00 0.00 88 1014.1
20260510073803 57 146 0.0 0.0 0.00 0.00 0.00 88 1014.0
20260510073303 58 146 0.0 0.0 0.00 0.00 0.00 89 1014.0
20260510071803 58 146 0.0 0.0 0.00 0.00 0.00 90 1013.9
20260510070804 58 146 0.0 0.0 0.00 0.00 0.00 90 1013.9
20260510070304 58 146 0.0 0.0 0.00 0.00 0.00 90 1014.0
20260510064303 58 146 0.0 0.0 0.00 0.00 0.00 89 1014.0
20260510063803 58 146 0.0 0.0 0.00 0.00 0.00 89 1014.0
20260510063304 58 146 0.0 0.0 0.00 0.00 0.00 89 1014.0
20260510060803 59 146 0.0 0.0 0.00 0.00 0.00 88 1014.1
20260510055804 59 146 0.0 0.0 0.00 0.00 0.00 88 1014.1
20260510053803 60 146 0.0 0.0 0.00 0.00 0.00 86 1014.1
20260510053303 60 146 0.0 0.0 0.00 0.00 0.00 86 1014.1
20260510052803 60 146 0.0 0.0 0.00 0.00 0.00 86 1014.1
20260510051803 60 146 0.0 0.0 0.00 0.00 0.00 86 1014.1
20260510051304 60 146 0.0 0.0 0.00 0.00 0.00 86 1014.1
20260510050813 60 146 0.0 0.0 0.00 0.00 0.00 86 1014.1
20260510050304 61 146 0.0 0.0 0.00 0.00 0.00 85 1014.1
20260510045803 61 146 0.0 0.0 0.00 0.00 0.00 85 1014.1
20260510045306 61 146 0.0 0.0 0.00 0.00 0.00 85 1014.1
20260510040803 63 146 0.0 0.0 0.00 0.00 0.00 81 1014.0
20260510035803 64 146 0.0 0.0 0.00 0.00 0.00 80 1013.9
20260510034303 64 146 0.0 0.0 0.00 0.00 0.00 79 1014.0
20260510033804 64 146 0.0 0.0 0.00 0.00 0.00 79 1013.9
20260510033303 65 146 0.0 0.0 0.00 0.00 0.00 78 1014.0
20260510031804 65 146 0.0 0.0 0.00 0.00 0.00 77 1013.8
20260510031303 65 146 0.0 0.0 0.00 0.00 0.00 76 1013.8
20260510030803 65 146 0.0 0.0 0.00 0.00 0.00 76 1013.7
20260510025803 66 146 0.0 0.0 0.00 0.00 0.00 75 1013.7
20260510025306 66 146 0.0 0.0 0.00 0.00 0.00 75 1013.6
20260510024803 67 146 0.0 0.0 0.00 0.00 0.00 73 1013.5
20260510022306 69 146 0.0 0.0 0.00 0.00 0.00 68 1013.1
20260510020804 70 146 0.0 0.0 0.00 0.00 0.00 66 1013.0
20260510020304 70 146 0.0 0.0 0.00 0.00 0.00 65 1012.9
20260510015803 70 146 0.0 0.0 0.00 0.00 0.00 65 1012.8
20260510015306 70 146 0.0 0.0 0.00 0.00 0.00 63 1012.7
20260510014803 71 146 0.0 0.0 0.00 0.00 0.00 62 1012.6
20260510013804 71 146 0.0 0.0 0.00 0.00 0.00 61 1012.4
20260510013303 71 146 0.0 0.0 0.00 0.00 0.00 60 1012.3
20260510012804 71 146 0.0 0.0 0.00 0.00 0.00 60 1012.3
20260510012306 71 146 0.0 0.0 0.00 0.00 0.00 60 1012.2
20260510011804 72 146 0.0 0.0 0.00 0.00 0.00 60 1012.2
20260510010803 72 146 0.0 0.0 0.00 0.00 0.00 60 1012.1
20260510005306 73 146 0.0 0.0 0.00 0.00 0.00 60 1011.9
20260510001803 74 146 0.0 0.0 0.00 0.00 0.00 59 1011.6
20260509235803 74 146 0.0 0.0 0.00 0.00 0.00 58 1011.6
20260509233803 75 146 0.0 0.0 0.00 0.00 0.00 60 1011.4
20260509232803 75 146 0.0 0.0 0.00 0.00 0.00 59 1011.6
20260509232306 75 146 0.0 0.0 0.00 0.00 0.00 60 1011.5
20260509231803 74 146 0.0 0.0 0.00 0.00 0.00 60 1011.5
20260509231303 74 146 0.0 0.0 0.00 0.00 0.00 59 1011.3
20260509230804 74 146 0.0 0.0 0.00 0.00 0.00 60 1011.3
20260509225803 74 146 0.0 0.0 0.00 0.00 0.00 62 1011.3
20260509224803 74 146 0.0 0.0 0.00 0.00 0.00 62 1011.4
20260509222803 76 146 0.0 0.0 0.00 0.00 0.00 59 1011.4
20260509221303 76 146 0.0 0.0 0.00 0.00 0.00 58 1011.3
20260509220803 76 146 0.0 0.0 0.00 0.00 0.00 58 1011.2
20260509220303 77 146 0.0 0.0 0.00 0.00 0.00 57 1011.4
20260509215804 77 146 0.0 0.0 0.00 0.00 0.00 57 1011.4
20260509214804 77 146 0.0 0.0 0.00 0.00 0.00 57 1011.3
20260509214304 78 146 0.0 0.0 0.00 0.00 0.00 57 1011.3
20260509212803 78 146 0.0 0.0 0.00 0.00 0.00 53 1011.2
20260509212306 78 146 0.0 0.0 0.00 0.00 0.00 54 1011.2
20260509211804 78 146 0.0 0.0 0.00 0.00 0.00 50 1011.2
20260509205306 78 146 0.0 0.0 0.00 0.00 0.00 57 1011.2
20260509204804 78 146 0.0 0.0 0.00 0.00 0.00 55 1011.2
20260509202306 77 146 0.0 0.0 0.00 0.00 0.00 56 1011.0
20260509201804 76 146 0.0 0.0 0.00 0.00 0.00 56 1011.2
20260509201304 76 146 0.0 0.0 0.00 0.00 0.00 56 1011.4
20260509200803 77 146 0.0 0.0 0.00 0.00 0.00 56 1011.3
20260509200304 77 146 0.0 0.0 0.00 0.00 0.00 55 1011.4
20260509195803 78 146 0.0 0.0 0.00 0.00 0.00 54 1011.5
20260509195306 78 146 0.0 0.0 0.00 0.00 0.00 55 1011.6
20260509194803 78 146 0.0 0.0 0.00 0.00 0.00 56 1011.7